Hourly Data Report for August 14, 2003

SHERBROOKE A
QUEBEC

45°26'00.000" N
71°41'00.000" W
241.40 m
7028124
71610
YSC

Download Data

Hourly Data (August 2003)
Hourly Data Report for August 14, 2003
TIME
LST
Temp Definition
°C
Dew Point Definition
°C
Rel Hum Definition
%
Precip. Amount Definition
mm

Wind Dir Definition
10's deg

Wind Spd Definition
km/h
Visibility Definition
km
Stn Press Definition
kPa
Hmdx Definition


Wind Chill Definition


Weather Definition


00:00 17.7 16.1 90   25 4 15.0 99.46      
01:00 16.4 15.0 91   22 6 15.0 99.48      
02:00 15.9 14.8 93     0 15.0 99.49      
03:00 16.7 15.4 92   26 6 15.0 99.50      
04:00 16.0 15.0 94   27 6 15.0 99.51      
05:00 16.4 15.1 92   27 6 15.0 99.55      
06:00 18.2 16.3 89   29 6 15.0 99.61      
07:00 19.0 16.3 84   26 6 24.1 99.60     Mainly Clear
08:00 21.4 16.4 73   30 9 24.1 99.61 26   Mainly Clear
09:00 22.4 15.8 66   31 13 24.1 99.61 27   Mainly Clear
10:00 24.0 13.9 53   32 7 24.1 99.61 27   Clear
11:00 25.3 14.0 50   28 15 24.1 99.59 29   Mainly Clear
12:00 25.7 14.1 49   28 15 24.1 99.52 29   Clear
13:00 25.8 12.8 44   32 15 24.1 99.49 28   Mainly Clear
14:00 26.0 14.3 48   28 19 24.1 99.45 30   Mainly Clear
15:00 24.9 15.0 54   28 17 24.1 99.43 29   Clear
16:00 24.9 14.2 51   32 9 24.1 99.40 28   Clear
17:00 24.0 12.9 50   33 6 15.0 99.39 27    
18:00 22.8 14.1 58   30 6 15.0 99.39 26    
19:00 16.6 13.8 84   26 4 15.0 99.41      
20:00 14.8 12.7 87   13 7 15.0 99.45      
21:00 13.8 12.5 92     0 15.0 99.45      
22:00 13.7 12.6 93   11 4 15.0 99.45      
23:00 12.7 11.6 93     0 15.0 99.43      

Notes on Data Quality.

Legend

  • E = Estimated
  • M = Missing
  • NA = Not Available*
  • [empty] = Indicates an unobserved value
Date modified: